• In Uzbekistan
  • List of Countries
  • For 7 days
  • Water Temperature
  • Satellite Maps
  • Weather Map
  • Weather Widgets
  • user-avatar
    Login

    Hourly Weather Uige

    Today, 24 June, Saturday

    Time Temperature Precipitation Wind Pressure Humidity
    00:00 +19°C° 0 mm 1 mps 690 mmHg 63%
    01:00 +18°C° 0 mm 1 mps 690 mmHg 73%
    02:00 +18°C° 0 mm 1 mps 690 mmHg 74%
    03:00 +18°C° 0 mm 1 mps 690 mmHg 76%
    04:00 +16°C° 0 mm 1 mps 690 mmHg 77%
    05:00 +18°C° 0 mm 1 mps 691 mmHg 72%
    06:00 +19°C° 0 mm 1 mps 691 mmHg 68%
    07:00 +20°C° 0 mm 1 mps 692 mmHg 60%
    08:00 +23°C° 0 mm 2 mps 692 mmHg 49%
    09:00 +26°C° 0 mm 2 mps 693 mmHg 39%
    10:00 +29°C° 0 mm 3 mps 693 mmHg 28%
    11:00 +31°C° 0 mm 3 mps 693 mmHg 26%
    12:00 +32°C° 0 mm 2 mps 693 mmHg 24%
    13:00 +35°C° 0 mm 2 mps 692 mmHg 22%
    14:00 +34°C° 0 mm 2 mps 692 mmHg 22%
    15:00 +34°C° 0 mm 2 mps 691 mmHg 22%
    16:00 +33°C° 0 mm 1 mps 691 mmHg 23%
    17:00 +30°C° 0 mm 1 mps 690 mmHg 30%
    18:00 +26°C° 0 mm 1 mps 690 mmHg 37%
    19:00 +23°C° 0 mm 1 mps 690 mmHg 44%
    20:00 +22°C° 0 mm 1 mps 690 mmHg 46%
    21:00 +22°C° 0 mm 1 mps 691 mmHg 49%
    22:00 +21°C° 0 mm 1 mps 691 mmHg 51%
    23:00 +20°C° 0 mm 1 mps 691 mmHg 57%

    Tomorrow, 25 June, Sunday

    Time Temperature Precipitation Wind Pressure Humidity
    00:00 +19°C° 0 mm 1 mps 690 mmHg 63%
    01:00 +18°C° 0 mm 1 mps 690 mmHg 69%
    02:00 +18°C° 0 mm 1 mps 690 mmHg 71%
    03:00 +16°C° 0 mm 1 mps 690 mmHg 73%
    04:00 +16°C° 0 mm 1 mps 689 mmHg 75%
    05:00 +18°C° 0 mm 1 mps 690 mmHg 74%
    06:00 +18°C° 0 mm 1 mps 690 mmHg 73%
    07:00 +19°C° 0 mm 1 mps 690 mmHg 72%
    08:00 +23°C° 0 mm 1 mps 691 mmHg 59%
    09:00 +27°C° 0 mm 1 mps 692 mmHg 46%
    10:00 +31°C° 0 mm 1 mps 693 mmHg 33%
    11:00 +33°C° 0 mm 1 mps 693 mmHg 29%
    12:00 +35°C° 0 mm 1 mps 693 mmHg 25%
    13:00 +37°C° 0 mm 1 mps 692 mmHg 21%
    14:00 +36°C° 0 mm 1 mps 692 mmHg 22%
    15:00 +35°C° 0 mm 1 mps 691 mmHg 22%
    16:00 +34°C° 0 mm 1 mps 690 mmHg 22%
    17:00 +31°C° 0 mm 1 mps 690 mmHg 30%
    18:00 +27°C° 0 mm 1 mps 690 mmHg 39%
    19:00 +23°C° 0 mm 1 mps 690 mmHg 47%
    20:00 +23°C° 0 mm 1 mps 690 mmHg 51%
    21:00 +22°C° 0 mm 1 mps 691 mmHg 55%
    22:00 +21°C° 0 mm 2 mps 691 mmHg 60%
    23:00 +21°C° 0 mm 1 mps 691 mmHg 67%

    Day after tomorrow, 26 June, Monday

    Time Temperature Precipitation Wind Pressure Humidity
    00:00 +20°C° 0 mm 1 mps 691 mmHg 75%
    01:00 +19°C° 0 mm 1 mps 691 mmHg 83%
    02:00 +18°C° 0 mm 1 mps 690 mmHg 85%
    03:00 +18°C° 0 mm 1 mps 690 mmHg 87%
    04:00 +18°C° 0 mm 1 mps 690 mmHg 89%
    05:00 +18°C° 0 mm 1 mps 690 mmHg 84%
    06:00 +19°C° 0 mm 1 mps 690 mmHg 80%
    07:00 +20°C° 0 mm 1 mps 691 mmHg 76%
    08:00 +23°C° 0 mm 1 mps 692 mmHg 62%
    09:00 +27°C° 0 mm 1 mps 693 mmHg 48%
    10:00 +31°C° 0 mm 1 mps 693 mmHg 33%
    11:00 +33°C° 0 mm 1 mps 693 mmHg 29%
    12:00 +35°C° 0 mm 2 mps 692 mmHg 26%
    13:00 +37°C° 0 mm 2 mps 692 mmHg 22%
    14:00 +37°C° 0 mm 2 mps 691 mmHg 22%
    15:00 +36°C° 0 mm 2 mps 690 mmHg 22%
    16:00 +36°C° 0 mm 2 mps 690 mmHg 23%
    17:00 +32°C° 0 mm 2 mps 690 mmHg 28%
    18:00 +29°C° 0 mm 2 mps 690 mmHg 34%
    19:00 +26°C° 0 mm 2 mps 690 mmHg 39%
    20:00 +25°C° 0 mm 2 mps 690 mmHg 44%
    21:00 +23°C° 0 mm 1 mps 691 mmHg 48%
    22:00 +22°C° 0 mm 1 mps 691 mmHg 53%
    23:00 +21°C° 0 mm 1 mps 691 mmHg 58%

    27 June, Tuesday

    Time Temperature Precipitation Wind Pressure Humidity
    00:00 +20°C° 0 mm 1 mps 690 mmHg 64%
    01:00 +19°C° 0 mm 1 mps 690 mmHg 70%
    02:00 +19°C° 0 mm 1 mps 690 mmHg 71%
    03:00 +19°C° 0 mm 1 mps 690 mmHg 72%
    04:00 +18°C° 0 mm 1 mps 690 mmHg 74%
    05:00 +19°C° 0 mm 1 mps 690 mmHg 72%
    06:00 +20°C° 0 mm 1 mps 691 mmHg 71%
    07:00 +20°C° 0 mm 1 mps 691 mmHg 69%
    08:00 +24°C° 0 mm 1 mps 692 mmHg 58%
    09:00 +27°C° 0 mm 1 mps 693 mmHg 46%
    10:00 +31°C° 0 mm 2 mps 694 mmHg 35%
    11:00 +34°C° 0 mm 2 mps 693 mmHg 30%
    12:00 +35°C° 0 mm 2 mps 693 mmHg 26%
    13:00 +37°C° 0 mm 2 mps 692 mmHg 21%
    14:00 +37°C° 0 mm 2 mps 692 mmHg 22%
    15:00 +36°C° 0 mm 2 mps 691 mmHg 22%
    16:00 +36°C° 0 mm 2 mps 691 mmHg 22%
    17:00 +32°C° 0 mm 2 mps 691 mmHg 29%
    18:00 +28°C° 0 mm 2 mps 691 mmHg 35%
    19:00 +25°C° 0 mm 2 mps 691 mmHg 42%
    20:00 +24°C° 0 mm 2 mps 691 mmHg 49%
    21:00 +23°C° 0 mm 2 mps 692 mmHg 56%
    22:00 +21°C° 0 mm 2 mps 692 mmHg 63%
    23:00 +20°C° 0 mm 1 mps 692 mmHg 71%

    28 June, Wednesday

    Time Temperature Precipitation Wind Pressure Humidity
    00:00 +19°C° 0 mm 1 mps 691 mmHg 79%
    01:00 +18°C° 0 mm 1 mps 691 mmHg 86%
    02:00 +18°C° 0 mm 1 mps 691 mmHg 87%
    03:00 +16°C° 0 mm 1 mps 690 mmHg 88%
    04:00 +16°C° 0 mm 1 mps 690 mmHg 89%
    05:00 +18°C° 0 mm 1 mps 691 mmHg 85%
    06:00 +18°C° 0 mm 1 mps 691 mmHg 81%
    07:00 +19°C° 0 mm 1 mps 692 mmHg 78%
    08:00 +23°C° 0 mm 1 mps 693 mmHg 63%
    09:00 +26°C° 0 mm 1 mps 693 mmHg 49%
    10:00 +30°C° 0 mm 2 mps 694 mmHg 35%
    11:00 +32°C° 0 mm 2 mps 693 mmHg 30%
    12:00 +35°C° 0 mm 2 mps 693 mmHg 25%
    13:00 +36°C° 0 mm 1 mps 692 mmHg 19%
    14:00 +35°C° 0 mm 1 mps 692 mmHg 19%
    15:00 +35°C° 0 mm 1 mps 691 mmHg 19%
    16:00 +35°C° 0 mm 1 mps 691 mmHg 19%
    17:00 +31°C° 0 mm 1 mps 691 mmHg 27%
    18:00 +27°C° 0 mm 1 mps 690 mmHg 34%
    19:00 +23°C° 0 mm 1 mps 690 mmHg 42%
    20:00 +22°C° 0 mm 1 mps 691 mmHg 51%
    21:00 +21°C° 0 mm 1 mps 691 mmHg 59%
    22:00 +20°C° 0 mm 1 mps 692 mmHg 68%
    23:00 +19°C° 0 mm 1 mps 691 mmHg 76%

    29 June, Thursday

    Time Temperature Precipitation Wind Pressure Humidity
    00:00 +18°C° 0 mm 1 mps 691 mmHg 85%
    01:00 +16°C° 0 mm 1 mps 691 mmHg 93%
    02:00 +16°C° 0 mm 1 mps 691 mmHg 94%
    03:00 +15°C° 0 mm 1 mps 691 mmHg 95%
    04:00 +15°C° 0 mm 1 mps 691 mmHg 97%
    05:00 +16°C° 0 mm 1 mps 691 mmHg 95%
    06:00 +16°C° 0 mm 1 mps 692 mmHg 93%
    07:00 +18°C° 0 mm 1 mps 693 mmHg 91%
    08:00 +22°C° 0 mm 1 mps 693 mmHg 75%
    09:00 +25°C° 0 mm 1 mps 694 mmHg 59%
    10:00 +29°C° 0 mm 1 mps 695 mmHg 43%
    11:00 +31°C° 0 mm 1 mps 694 mmHg 36%
    12:00 +33°C° 0 mm 1 mps 694 mmHg 30%
    13:00 +35°C° 0 mm 1 mps 693 mmHg 23%
    14:00 +34°C° 0 mm 1 mps 692 mmHg 23%
    15:00 +34°C° 0 mm 1 mps 692 mmHg 22%
    16:00 +34°C° 0 mm 2 mps 692 mmHg 22%
    17:00 +30°C° 0 mm 2 mps 691 mmHg 31%
    18:00 +27°C° 0 mm 1 mps 691 mmHg 40%
    19:00 +23°C° 0 mm 1 mps 691 mmHg 48%
    20:00 +22°C° 0 mm 1 mps 692 mmHg 56%
    21:00 +21°C° 0 mm 1 mps 692 mmHg 65%
    22:00 +19°C° 0 mm 2 mps 693 mmHg 73%
    23:00 +19°C° 0 mm 1 mps 693 mmHg 79%
    Show more